When you browse on this site, cookies collect data to enhance your experience and personalize the content and advertising you see.
Visit our Privacy Policy to learn more. By continuing to use the site, you agree to this use of cookies and data.
  • In France
  • List of Countries
  • For 7 days
  • Water Temperature
  • Weather Map
  • Weather Widgets
  • user-avatar
    Login

    Hourly Weather Abomey

    Today, 21 February, Friday

    Time Temperature Precipitation Wind Pressure Humidity
    00:00 +27°C° 0 mm 1 mps 737 mmHg 88%
    01:00 +26°C° 0 mm 1 mps 736 mmHg 90%
    02:00 +26°C° 0 mm 1 mps 736 mmHg 92%
    03:00 +24°C° 0 mm 0 mps 736 mmHg 93%
    04:00 +23°C° 0 mm 0 mps 736 mmHg 93%
    05:00 +23°C° 0 mm 0 mps 736 mmHg 94%
    06:00 +23°C° 0 mm 0 mps 737 mmHg 95%
    13:00 +42°C° 0 mm 2 mps 736 mmHg 17%
    14:00 +43°C° 0 mm 2 mps 735 mmHg 15%
    15:00 +43°C° 0 mm 2 mps 735 mmHg 13%
    16:00 +41°C° 0 mm 2 mps 735 mmHg 21%
    17:00 +38°C° 0 mm 3 mps 735 mmHg 28%
    18:00 +35°C° 0 mm 3 mps 735 mmHg 36%
    19:00 +33°C° 0 mm 4 mps 735 mmHg 50%
    20:00 +30°C° 0 mm 4 mps 736 mmHg 64%
    21:00 +28°C° 0 mm 4 mps 737 mmHg 78%
    22:00 +27°C° 0 mm 3 mps 737 mmHg 81%
    23:00 +27°C° 0 mm 3 mps 737 mmHg 85%

    Tomorrow, 22 February, Saturday

    Time Temperature Precipitation Wind Pressure Humidity
    00:00 +26°C° 0 mm 2 mps 737 mmHg 89%
    01:00 +26°C° 0 mm 2 mps 737 mmHg 91%
    02:00 +25°C° 0 mm 2 mps 736 mmHg 93%
    03:00 +25°C° 0 mm 2 mps 736 mmHg 95%
    04:00 +25°C° 0 mm 2 mps 737 mmHg 95%
    05:00 +25°C° 0 mm 2 mps 737 mmHg 95%
    06:00 +25°C° 0 mm 2 mps 737 mmHg 95%
    07:00 +27°C° 0 mm 2 mps 738 mmHg 82%
    08:00 +30°C° 0 mm 2 mps 738 mmHg 70%
    09:00 +32°C° 0 mm 2 mps 739 mmHg 57%
    10:00 +36°C° 0 mm 2 mps 739 mmHg 46%
    11:00 +40°C° 0 mm 1 mps 738 mmHg 35%
    12:00 +43°C° 0 mm 1 mps 738 mmHg 23%
    13:00 +43°C° 0 mm 1 mps 737 mmHg 21%
    14:00 +43°C° 0 mm 2 mps 736 mmHg 20%
    15:00 +43°C° 0 mm 2 mps 736 mmHg 18%
    16:00 +40°C° 0 mm 3 mps 736 mmHg 29%
    17:00 +37°C° 0 mm 4 mps 736 mmHg 40%
    18:00 +34°C° 0 mm 5 mps 735 mmHg 51%
    19:00 +32°C° 0 mm 5 mps 736 mmHg 61%
    20:00 +30°C° 0 mm 4 mps 737 mmHg 70%
    21:00 +28°C° 0 mm 4 mps 737 mmHg 80%
    22:00 +27°C° 0 mm 4 mps 737 mmHg 82%
    23:00 +27°C° 0 mm 3 mps 738 mmHg 84%

    Day after tomorrow, 23 February, Sunday

    Time Temperature Precipitation Wind Pressure Humidity
    00:00 +27°C° 0 mm 3 mps 738 mmHg 86%
    01:00 +27°C° 0 mm 3 mps 737 mmHg 87%
    02:00 +26°C° 0 mm 3 mps 737 mmHg 88%
    03:00 +26°C° 0 mm 3 mps 737 mmHg 88%
    04:00 +26°C° 0 mm 2 mps 737 mmHg 88%
    05:00 +26°C° 0 mm 2 mps 738 mmHg 88%
    06:00 +26°C° 0 mm 2 mps 738 mmHg 87%
    07:00 +28°C° 0 mm 2 mps 739 mmHg 77%
    08:00 +30°C° 0 mm 2 mps 740 mmHg 67%
    09:00 +32°C° 0 mm 2 mps 741 mmHg 56%
    10:00 +36°C° 0 mm 2 mps 740 mmHg 47%
    11:00 +39°C° 0 mm 1 mps 739 mmHg 38%
    12:00 +42°C° 0 mm 1 mps 739 mmHg 29%
    13:00 +42°C° 0 mm 1 mps 738 mmHg 27%
    14:00 +43°C° 0 mm 1 mps 737 mmHg 25%
    15:00 +43°C° 0 mm 2 mps 737 mmHg 22%
    16:00 +40°C° 0 mm 3 mps 737 mmHg 34%
    17:00 +37°C° 0 mm 4 mps 736 mmHg 45%
    18:00 +34°C° 0 mm 5 mps 736 mmHg 56%
    19:00 +32°C° 0 mm 5 mps 737 mmHg 62%
    20:00 +30°C° 0 mm 4 mps 738 mmHg 69%
    21:00 +28°C° 0 mm 4 mps 738 mmHg 75%
    22:00 +28°C° 0 mm 3 mps 738 mmHg 77%
    23:00 +27°C° 0 mm 3 mps 738 mmHg 79%

    24 February, Monday

    Time Temperature Precipitation Wind Pressure Humidity
    00:00 +27°C° 0 mm 2 mps 738 mmHg 82%
    01:00 +26°C° 0 mm 2 mps 738 mmHg 83%
    02:00 +26°C° 0 mm 2 mps 738 mmHg 85%
    03:00 +26°C° 0 mm 2 mps 737 mmHg 86%
    04:00 +25°C° 0 mm 1 mps 738 mmHg 88%
    05:00 +25°C° 0 mm 1 mps 738 mmHg 89%
    06:00 +25°C° 0 mm 1 mps 738 mmHg 91%
    07:00 +27°C° 0 mm 1 mps 739 mmHg 79%
    08:00 +30°C° 0 mm 1 mps 739 mmHg 67%
    09:00 +33°C° 0 mm 1 mps 740 mmHg 55%
    10:00 +36°C° 0 mm 1 mps 739 mmHg 45%
    11:00 +41°C° 0 mm 1 mps 739 mmHg 35%
    12:00 +41°C° 0 mm 0 mps 738 mmHg 25%
    13:00 +43°C° 0 mm 1 mps 737 mmHg 23%
    14:00 +43°C° 0 mm 2 mps 736 mmHg 22%
    15:00 +42°C° 0 mm 2 mps 735 mmHg 21%
    16:00 +39°C° 0 mm 3 mps 735 mmHg 31%
    17:00 +37°C° 0 mm 4 mps 735 mmHg 41%
    18:00 +34°C° 0 mm 5 mps 735 mmHg 51%
    19:00 +32°C° 0 mm 4 mps 736 mmHg 60%
    20:00 +30°C° 0 mm 4 mps 737 mmHg 69%
    21:00 +28°C° 0 mm 3 mps 738 mmHg 78%
    22:00 +27°C° 0 mm 3 mps 738 mmHg 81%
    23:00 +27°C° 0 mm 2 mps 738 mmHg 84%

    25 February, Tuesday

    Time Temperature Precipitation Wind Pressure Humidity
    00:00 +26°C° 0 mm 2 mps 738 mmHg 86%
    01:00 +26°C° 0 mm 2 mps 738 mmHg 89%
    02:00 +25°C° 0 mm 1 mps 737 mmHg 92%
    03:00 +25°C° 0 mm 1 mps 737 mmHg 94%
    04:00 +25°C° 0 mm 1 mps 737 mmHg 95%
    05:00 +22°C° 0 mm 0 mps 738 mmHg 95%
    06:00 +22°C° 0 mm 0 mps 738 mmHg 95%
    07:00 +27°C° 0 mm 1 mps 738 mmHg 83%
    08:00 +29°C° 0 mm 1 mps 739 mmHg 71%
    09:00 +32°C° 0 mm 2 mps 739 mmHg 59%
    10:00 +35°C° 0 mm 1 mps 739 mmHg 48%
    11:00 +39°C° 0 mm 1 mps 738 mmHg 36%
    12:00 +42°C° 0 mm 1 mps 738 mmHg 25%
    13:00 +42°C° 0 mm 1 mps 737 mmHg 23%
    14:00 +42°C° 0 mm 1 mps 736 mmHg 21%
    15:00 +43°C° 0 mm 1 mps 736 mmHg 19%
    16:00 +40°C° 0 mm 2 mps 736 mmHg 28%
    17:00 +37°C° 0 mm 3 mps 736 mmHg 38%
    18:00 +34°C° 0 mm 4 mps 736 mmHg 47%
    19:00 +31°C° 0 mm 3 mps 736 mmHg 58%
    20:00 +29°C° 0 mm 3 mps 737 mmHg 68%
    21:00 +27°C° 0 mm 2 mps 737 mmHg 79%
    22:00 +27°C° 0 mm 2 mps 737 mmHg 81%
    23:00 +26°C° 0 mm 2 mps 737 mmHg 84%

    26 February, Wednesday

    Time Temperature Precipitation Wind Pressure Humidity
    00:00 +26°C° 0 mm 2 mps 738 mmHg 87%
    01:00 +25°C° 0 mm 2 mps 737 mmHg 90%
    02:00 +25°C° 0 mm 1 mps 737 mmHg 93%
    03:00 +24°C° 0 mm 1 mps 736 mmHg 96%
    04:00 +24°C° 0 mm 1 mps 737 mmHg 96%
    05:00 +24°C° 0 mm 1 mps 737 mmHg 96%
    06:00 +24°C° 0 mm 1 mps 737 mmHg 97%
    07:00 +26°C° 0 mm 1 mps 737 mmHg 84%
    08:00 +29°C° 0 mm 2 mps 738 mmHg 70%
    09:00 +31°C° 0 mm 2 mps 739 mmHg 57%
    10:00 +35°C° 0 mm 2 mps 738 mmHg 47%
    11:00 +38°C° 0 mm 2 mps 738 mmHg 37%
    12:00 +40°C° 0 mm 2 mps 738 mmHg 27%
    13:00 +40°C° 0 mm 3 mps 737 mmHg 27%
    14:00 +40°C° 0 mm 3 mps 736 mmHg 27%
    15:00 +41°C° 0 mm 4 mps 735 mmHg 27%
    16:00 +38°C° 0 mm 4 mps 735 mmHg 37%
    17:00 +35°C° 0 mm 5 mps 735 mmHg 46%
    18:00 +33°C° 0 mm 5 mps 736 mmHg 56%
    19:00 +30°C° 0 mm 4 mps 736 mmHg 64%
    20:00 +29°C° 0 mm 4 mps 737 mmHg 72%
    21:00 +27°C° 0 mm 3 mps 737 mmHg 80%
    22:00 +27°C° 0 mm 3 mps 738 mmHg 84%
    23:00 +26°C° 0 mm 2 mps 738 mmHg 87%
    Show more